Time,TemperatureF,DewpointF,PressureIn,WindDirection,WindDirectionDegrees,WindSpeedMPH,WindSpeedGustMPH,Humidity,HourlyPrecipIn,Conditions,Clouds,dailyrainin,SolarRadiationWatts/m^2,SoftwareType,DateUTC
2013-02-01 00:00:00,29.6,7.1,29.55,N/A,-32768,0.0,0.0,38,0.00,,,0.00,0,Wunderground v.1.15,2013-02-01 05:00:00,
2013-02-01 00:01:00,29.8,7.2,29.55,N/A,-32768,0.0,0.0,38,0.00,,,0.00,0,Wunderground v.1.15,2013-02-01 05:01:00,
2013-02-01 00:05:00,29.6,7.1,29.55,N/A,-32768,0.0,0.0,38,0.00,,,0.00,0,Wunderground v.1.15,2013-02-01 05:05:00,
2013-02-01 00:07:00,29.4,6.9,29.55,N/A,-32768,0.0,0.0,38,0.00,,,0.00,0,Wunderground v.1.15,2013-02-01 05:07:00,
2013-02-01 00:12:00,29.2,7.3,29.55,N/A,-32768,0.0,0.0,39,0.00,,,0.00,0,Wunderground v.1.15,2013-02-01 05:12:00,
2013-02-01 00:18:00,29.5,7.0,29.55,N/A,-32768,0.0,0.0,38,0.00,,,0.00,0,Wunderground v.1.15,2013-02-01 05:18:00,
2013-02-01 00:23:00,29.3,6.8,29.55,N/A,-32768,0.0,0.0,38,0.00,,,0.00,0,Wunderground v.1.15,2013-02-01 05:23:00,
2013-02-01 00:29:00,29.4,6.9,29.55,N/A,-32768,0.0,0.0,38,0.00,,,0.00,0,Wunderground v.1.15,2013-02-01 05:29:00,
2013-02-01 00:35:00,29.4,6.9,29.55,N/A,-32768,0.0,0.0,38,0.00,,,0.00,0,Wunderground v.1.15,2013-02-01 05:35:00,
2013-02-01 00:40:00,29.3,6.8,29.56,N/A,-32768,0.0,0.0,38,0.00,,,0.00,0,Wunderground v.1.15,2013-02-01 05:40:00,
2013-02-01 00:45:00,29.4,6.9,29.55,N/A,-32768,0.0,0.0,38,0.00,,,0.00,0,Wunderground v.1.15,2013-02-01 05:45:00,
2013-02-01 00:51:00,29.3,6.8,29.56,N/A,-32768,0.0,0.0,38,0.00,,,0.00,0,Wunderground v.1.15,2013-02-01 05:51:00,
2013-02-01 00:57:00,29.1,6.6,29.56,N/A,-32768,0.0,0.0,38,0.00,,,0.00,0,Wunderground v.1.15,2013-02-01 05:57:00,
2013-02-01 01:03:00,29.1,7.2,29.56,N/A,-32768,0.0,0.0,39,0.00,,,0.00,0,Wunderground v.1.15,2013-02-01 06:03:00,
2013-02-01 01:09:00,28.8,6.9,29.56,N/A,-32768,0.0,0.0,39,0.00,,,0.00,0,Wunderground v.1.15,2013-02-01 06:09:00,
2013-02-01 01:15:00,29.0,7.1,29.55,N/A,-32768,0.0,0.0,39,0.00,,,0.00,0,Wunderground v.1.15,2013-02-01 06:15:00,
2013-02-01 01:21:00,28.6,7.3,29.56,N/A,-32768,0.0,0.0,40,0.00,,,0.00,0,Wunderground v.1.15,2013-02-01 06:21:00,
2013-02-01 01:26:00,28.8,7.5,29.56,N/A,-32768,0.0,0.0,40,0.00,,,0.00,0,Wunderground v.1.15,2013-02-01 06:26:00,
2013-02-01 01:32:00,28.6,7.3,29.56,N/A,-32768,0.0,0.0,40,0.00,,,0.00,0,Wunderground v.1.15,2013-02-01 06:32:00,
2013-02-01 01:38:00,28.6,6.7,29.56,N/A,-32768,0.0,0.0,39,0.00,,,0.00,0,Wunderground v.1.15,2013-02-01 06:38:00,
2013-02-01 01:43:00,28.6,6.7,29.56,N/A,-32768,0.0,0.0,39,0.00,,,0.00,0,Wunderground v.1.15,2013-02-01 06:43:00,
2013-02-01 01:49:00,28.6,7.3,29.56,N/A,-32768,0.0,0.0,40,0.00,,,0.00,0,Wunderground v.1.15,2013-02-01 06:49:00,
2013-02-01 01:55:00,28.5,7.2,29.56,N/A,-32768,0.0,0.0,40,0.00,,,0.00,0,Wunderground v.1.15,2013-02-01 06:55:00,
2013-02-01 02:00:00,28.5,7.2,29.56,N/A,-32768,0.0,0.0,40,0.00,,,0.00,0,Wunderground v.1.15,2013-02-01 07:00:00,
2013-02-01 02:05:00,28.7,7.4,29.56,N/A,-32768,0.0,0.0,40,0.00,,,0.00,0,Wunderground v.1.15,2013-02-01 07:05:00,
2013-02-01 02:10:00,28.4,7.1,29.56,N/A,-32768,0.0,0.0,40,0.00,,,0.00,0,Wunderground v.1.15,2013-02-01 07:10:00,
2013-02-01 02:15:00,28.3,7.0,29.56,N/A,-32768,0.0,0.0,40,0.00,,,0.00,0,Wunderground v.1.15,2013-02-01 07:15:00,
2013-02-01 02:20:00,28.5,7.2,29.56,N/A,-32768,0.0,0.0,40,0.00,,,0.00,0,Wunderground v.1.15,2013-02-01 07:20:00,
2013-02-01 02:25:00,28.3,7.0,29.55,N/A,-32768,0.0,0.0,40,0.00,,,0.00,0,Wunderground v.1.15,2013-02-01 07:25:00,
2013-02-01 02:30:00,28.1,6.8,29.56,N/A,-32768,0.0,0.0,40,0.00,,,0.00,0,Wunderground v.1.15,2013-02-01 07:30:00,
2013-02-01 02:35:00,28.0,7.3,29.56,N/A,-32768,0.0,0.0,41,0.00,,,0.00,0,Wunderground v.1.15,2013-02-01 07:35:00,
2013-02-01 02:40:00,27.9,7.2,29.56,N/A,-32768,0.0,0.0,41,0.00,,,0.00,0,Wunderground v.1.15,2013-02-01 07:40:00,
2013-02-01 02:45:00,27.5,7.4,29.56,N/A,-32768,0.0,0.0,42,0.00,,,0.00,0,Wunderground v.1.15,2013-02-01 07:45:00,
2013-02-01 02:50:00,27.5,7.4,29.56,N/A,-32768,0.0,0.0,42,0.00,,,0.00,0,Wunderground v.1.15,2013-02-01 07:50:00,
2013-02-01 02:55:00,27.3,7.2,29.56,N/A,-32768,0.0,0.0,42,0.00,,,0.00,0,Wunderground v.1.15,2013-02-01 07:55:00,
2013-02-01 03:00:00,27.5,7.4,29.55,N/A,-32768,0.0,0.0,42,0.00,,,0.00,0,Wunderground v.1.15,2013-02-01 08:00:00,
2013-02-01 03:05:00,27.5,7.4,29.55,N/A,-32768,0.0,0.0,42,0.00,,,0.00,0,Wunderground v.1.15,2013-02-01 08:05:00,
2013-02-01 03:10:00,27.4,7.3,29.55,N/A,-32768,0.0,0.0,42,0.00,,,0.00,0,Wunderground v.1.15,2013-02-01 08:10:00,
2013-02-01 03:15:00,27.1,7.5,29.56,N/A,-32768,0.0,0.0,43,0.00,,,0.00,0,Wunderground v.1.15,2013-02-01 08:15:00,
2013-02-01 03:20:00,27.2,7.6,29.56,N/A,-32768,0.0,0.0,43,0.00,,,0.00,0,Wunderground v.1.15,2013-02-01 08:20:00,
2013-02-01 03:25:00,27.1,7.5,29.56,N/A,-32768,0.0,0.0,43,0.00,,,0.00,0,Wunderground v.1.15,2013-02-01 08:25:00,
2013-02-01 03:30:00,27.0,8.0,29.56,N/A,-32768,0.0,0.0,44,0.00,,,0.00,0,Wunderground v.1.15,2013-02-01 08:30:00,
2013-02-01 03:35:00,27.2,8.1,29.56,N/A,-32768,0.0,0.0,44,0.00,,,0.00,0,Wunderground v.1.15,2013-02-01 08:35:00,
2013-02-01 03:40:00,27.1,8.0,29.56,N/A,-32768,0.0,0.0,44,0.00,,,0.00,0,Wunderground v.1.15,2013-02-01 08:40:00,
2013-02-01 03:45:00,27.3,7.7,29.56,N/A,-32768,0.0,0.0,43,0.00,,,0.00,0,Wunderground v.1.15,2013-02-01 08:45:00,
2013-02-01 03:50:00,27.2,8.1,29.56,N/A,-32768,0.0,0.0,44,0.00,,,0.00,0,Wunderground v.1.15,2013-02-01 08:50:00,
2013-02-01 03:55:00,27.3,8.2,29.56,N/A,-32768,0.0,0.0,44,0.00,,,0.00,0,Wunderground v.1.15,2013-02-01 08:55:00,
2013-02-01 04:00:00,27.4,8.3,29.56,N/A,-32768,0.0,0.0,44,0.00,,,0.00,0,Wunderground v.1.15,2013-02-01 09:00:00,
2013-02-01 04:05:00,27.4,7.8,29.56,N/A,-32768,0.0,0.0,43,0.00,,,0.00,0,Wunderground v.1.15,2013-02-01 09:05:00,
2013-02-01 04:10:00,27.6,8.0,29.56,N/A,-32768,0.0,0.0,43,0.00,,,0.00,0,Wunderground v.1.15,2013-02-01 09:10:00,
2013-02-01 04:15:00,27.5,8.4,29.56,N/A,-32768,0.0,0.0,44,0.00,,,0.00,0,Wunderground v.1.15,2013-02-01 09:15:00,
2013-02-01 04:20:00,27.5,8.4,29.56,N/A,-32768,0.0,0.0,44,0.00,,,0.00,0,Wunderground v.1.15,2013-02-01 09:20:00,
2013-02-01 04:25:00,27.4,8.3,29.56,N/A,-32768,0.0,0.0,44,0.00,,,0.00,0,Wunderground v.1.15,2013-02-01 09:25:00,
2013-02-01 04:30:00,27.3,8.2,29.56,N/A,-32768,0.0,0.0,44,0.00,,,0.00,0,Wunderground v.1.15,2013-02-01 09:30:00,
2013-02-01 04:35:00,27.1,8.5,29.55,N/A,-32768,0.0,0.0,45,0.00,,,0.00,0,Wunderground v.1.15,2013-02-01 09:35:00,
2013-02-01 04:40:00,27.3,8.7,29.56,N/A,-32768,0.0,0.0,45,0.00,,,0.00,0,Wunderground v.1.15,2013-02-01 09:40:00,
2013-02-01 04:45:00,27.0,8.5,29.55,N/A,-32768,0.0,0.0,45,0.00,,,0.00,0,Wunderground v.1.15,2013-02-01 09:45:00,
2013-02-01 04:50:00,27.3,8.7,29.56,N/A,-32768,0.0,0.0,45,0.00,,,0.00,0,Wunderground v.1.15,2013-02-01 09:50:00,
2013-02-01 04:55:00,27.3,9.2,29.55,N/A,-32768,0.0,0.0,46,0.00,,,0.00,0,Wunderground v.1.15,2013-02-01 09:55:00,
2013-02-01 05:00:00,27.0,8.9,29.56,N/A,-32768,0.0,0.0,46,0.00,,,0.00,0,Wunderground v.1.15,2013-02-01 10:00:00,
2013-02-01 05:05:00,27.3,9.2,29.56,N/A,-32768,0.0,0.0,46,0.00,,,0.00,0,Wunderground v.1.15,2013-02-01 10:05:00,
2013-02-01 05:10:00,27.2,9.1,29.56,N/A,-32768,0.0,0.0,46,0.00,,,0.00,0,Wunderground v.1.15,2013-02-01 10:10:00,
2013-02-01 05:15:00,27.3,9.2,29.56,N/A,-32768,0.0,0.0,46,0.00,,,0.00,0,Wunderground v.1.15,2013-02-01 10:15:00,
2013-02-01 05:20:00,27.3,9.2,29.56,N/A,-32768,0.0,0.0,46,0.00,,,0.00,0,Wunderground v.1.15,2013-02-01 10:20:00,
2013-02-01 05:25:00,27.4,9.3,29.55,N/A,-32768,0.0,0.0,46,0.00,,,0.00,0,Wunderground v.1.15,2013-02-01 10:25:00,
2013-02-01 05:30:00,27.2,9.1,29.56,N/A,-32768,0.0,0.0,46,0.00,,,0.00,0,Wunderground v.1.15,2013-02-01 10:30:00,
2013-02-01 05:35:00,27.2,9.6,29.56,N/A,-32768,0.0,0.0,47,0.00,,,0.00,0,Wunderground v.1.15,2013-02-01 10:35:00,
2013-02-01 05:40:00,27.2,9.6,29.56,N/A,-32768,0.0,0.0,47,0.00,,,0.00,0,Wunderground v.1.15,2013-02-01 10:40:00,
2013-02-01 05:45:00,27.4,9.8,29.56,N/A,-32768,0.0,0.0,47,0.00,,,0.00,0,Wunderground v.1.15,2013-02-01 10:45:00,
2013-02-01 05:50:00,27.3,9.7,29.56,N/A,-32768,0.0,0.0,47,0.00,,,0.00,0,Wunderground v.1.15,2013-02-01 10:50:00,
2013-02-01 05:55:00,27.4,9.8,29.56,N/A,-32768,0.0,0.0,47,0.00,,,0.00,0,Wunderground v.1.15,2013-02-01 10:55:00,
2013-02-01 06:00:00,27.5,10.4,29.56,N/A,-32768,0.0,0.0,48,0.00,,,0.00,0,Wunderground v.1.15,2013-02-01 11:00:00,
2013-02-01 06:05:00,27.3,10.2,29.57,N/A,-32768,0.0,0.0,48,0.00,,,0.00,0,Wunderground v.1.15,2013-02-01 11:05:00,
2013-02-01 06:10:00,27.3,10.2,29.57,N/A,-32768,0.0,0.0,48,0.00,,,0.00,0,Wunderground v.1.15,2013-02-01 11:10:00,
2013-02-01 06:15:00,27.4,10.3,29.56,N/A,-32768,0.0,0.0,48,0.00,,,0.00,0,Wunderground v.1.15,2013-02-01 11:15:00,
2013-02-01 06:20:00,27.4,10.3,29.56,N/A,-32768,0.0,0.0,48,0.00,,,0.00,0,Wunderground v.1.15,2013-02-01 11:20:00,
2013-02-01 06:25:00,27.4,10.3,29.57,N/A,-32768,0.0,0.0,48,0.00,,,0.00,0,Wunderground v.1.15,2013-02-01 11:25:00,
2013-02-01 06:30:00,27.2,10.5,29.56,N/A,-32768,0.0,0.0,49,0.00,,,0.00,0,Wunderground v.1.15,2013-02-01 11:30:00,
2013-02-01 06:35:00,27.4,10.7,29.57,N/A,-32768,0.0,0.0,49,0.00,,,0.00,0,Wunderground v.1.15,2013-02-01 11:35:00,
2013-02-01 06:40:00,27.3,10.6,29.56,N/A,-32768,0.0,0.0,49,0.00,,,0.00,0,Wunderground v.1.15,2013-02-01 11:40:00,
2013-02-01 06:45:00,27.2,11.0,29.56,N/A,-32768,0.0,0.0,50,0.00,,,0.00,0,Wunderground v.1.15,2013-02-01 11:45:00,
2013-02-01 06:50:00,27.3,11.1,29.56,N/A,-32768,0.0,0.0,50,0.00,,,0.00,0,Wunderground v.1.15,2013-02-01 11:50:00,
2013-02-01 06:55:00,27.2,11.0,29.56,N/A,-32768,0.0,0.0,50,0.00,,,0.00,0,Wunderground v.1.15,2013-02-01 11:55:00,
2013-02-01 07:00:00,27.3,11.1,29.56,N/A,-32768,0.0,0.0,50,0.00,,,0.00,0,Wunderground v.1.15,2013-02-01 12:00:00,
2013-02-01 07:05:00,27.2,11.0,29.56,N/A,-32768,0.0,0.0,50,0.00,,,0.00,0,Wunderground v.1.15,2013-02-01 12:05:00,
2013-02-01 07:10:00,27.4,11.6,29.56,N/A,-32768,0.0,0.0,51,0.00,,,0.00,0,Wunderground v.1.15,2013-02-01 12:10:00,
2013-02-01 07:15:00,27.1,11.3,29.55,N/A,-32768,0.0,0.0,51,0.00,,,0.00,0,Wunderground v.1.15,2013-02-01 12:15:00,
2013-02-01 07:20:00,27.2,11.4,29.56,N/A,-32768,0.0,0.0,51,0.00,,,0.00,0,Wunderground v.1.15,2013-02-01 12:20:00,
2013-02-01 07:25:00,27.3,12.0,29.56,N/A,-32768,0.0,0.0,52,0.00,,,0.00,0,Wunderground v.1.15,2013-02-01 12:25:00,
2013-02-01 07:30:00,27.4,12.1,29.56,N/A,-32768,0.0,0.0,52,0.00,,,0.00,0,Wunderground v.1.15,2013-02-01 12:30:00,
2013-02-01 07:36:00,27.5,12.2,29.56,N/A,-32768,0.0,0.0,52,0.00,,,0.00,0,Wunderground v.1.15,2013-02-01 12:36:00,
2013-02-01 07:41:00,27.6,12.2,29.56,N/A,-32768,0.0,0.0,52,0.00,,,0.00,0,Wunderground v.1.15,2013-02-01 12:41:00,
2013-02-01 07:46:00,27.7,12.3,29.56,N/A,-32768,0.0,0.0,52,0.00,,,0.00,0,Wunderground v.1.15,2013-02-01 12:46:00,
2013-02-01 07:51:00,27.8,12.4,29.56,N/A,-32768,0.0,0.0,52,0.00,,,0.00,0,Wunderground v.1.15,2013-02-01 12:51:00,
2013-02-01 07:56:00,28.0,12.6,29.56,N/A,-32768,0.0,0.0,52,0.00,,,0.00,0,Wunderground v.1.15,2013-02-01 12:56:00,
2013-02-01 08:01:00,28.1,12.7,29.57,N/A,-32768,0.0,0.0,52,0.00,,,0.00,0,Wunderground v.1.15,2013-02-01 13:01:00,
2013-02-01 08:06:00,28.5,12.6,29.57,N/A,-32768,0.0,0.0,51,0.00,,,0.00,0,Wunderground v.1.15,2013-02-01 13:06:00,
2013-02-01 08:11:00,28.6,12.7,29.57,N/A,-32768,0.0,0.0,51,0.00,,,0.00,0,Wunderground v.1.15,2013-02-01 13:11:00,
2013-02-01 08:16:00,29.0,12.7,29.57,N/A,-32768,0.0,0.0,50,0.00,,,0.00,0,Wunderground v.1.15,2013-02-01 13:16:00,
2013-02-01 08:21:00,29.2,12.4,29.57,N/A,-32768,0.0,0.0,49,0.00,,,0.00,0,Wunderground v.1.15,2013-02-01 13:21:00,
2013-02-01 08:26:00,29.6,12.8,29.57,N/A,-32768,0.0,0.0,49,0.00,,,0.00,0,Wunderground v.1.15,2013-02-01 13:26:00,
2013-02-01 08:31:00,29.6,12.8,29.57,N/A,-32768,0.0,0.0,49,0.00,,,0.00,0,Wunderground v.1.15,2013-02-01 13:31:00,
2013-02-01 08:36:00,30.0,14.0,29.57,N/A,-32768,0.0,0.0,51,0.00,,,0.00,0,Wunderground v.1.15,2013-02-01 13:36:00,
2013-02-01 08:41:00,30.0,14.0,29.57,N/A,-32768,0.0,0.0,51,0.00,,,0.00,0,Wunderground v.1.15,2013-02-01 13:41:00,
2013-02-01 08:46:00,29.9,14.4,29.57,N/A,-32768,0.0,0.0,52,0.00,,,0.00,0,Wunderground v.1.15,2013-02-01 13:46:00,
2013-02-01 08:51:00,29.8,14.3,29.57,N/A,-32768,0.0,0.0,52,0.00,,,0.00,0,Wunderground v.1.15,2013-02-01 13:51:00,
2013-02-01 08:56:00,29.6,14.5,29.57,N/A,-32768,0.0,0.0,53,0.00,,,0.00,0,Wunderground v.1.15,2013-02-01 13:56:00,
2013-02-01 09:01:00,29.6,14.5,29.58,N/A,-32768,0.0,0.0,53,0.00,,,0.00,0,Wunderground v.1.15,2013-02-01 14:01:00,
2013-02-01 09:06:00,29.2,15.0,29.58,N/A,-32768,0.0,0.0,55,0.00,,,0.00,0,Wunderground v.1.15,2013-02-01 14:06:00,
2013-02-01 09:11:00,29.1,15.3,29.58,N/A,-32768,0.0,0.0,56,0.00,,,0.00,0,Wunderground v.1.15,2013-02-01 14:11:00,
2013-02-01 09:16:00,28.7,15.4,29.58,N/A,-32768,0.0,0.0,57,0.00,,,0.00,0,Wunderground v.1.15,2013-02-01 14:16:00,
2013-02-01 09:21:00,28.7,15.8,29.58,N/A,-32768,0.0,0.0,58,0.00,,,0.00,0,Wunderground v.1.15,2013-02-01 14:21:00,
2013-02-01 09:26:00,29.0,16.1,29.58,N/A,-32768,0.0,0.0,58,0.00,,,0.00,0,Wunderground v.1.15,2013-02-01 14:26:00,
2013-02-01 09:31:00,29.1,16.1,29.57,N/A,-32768,0.0,0.0,58,0.00,,,0.00,0,Wunderground v.1.15,2013-02-01 14:31:00,
2013-02-01 09:36:00,29.3,16.3,29.57,N/A,-32768,0.0,0.0,58,0.00,,,0.00,0,Wunderground v.1.15,2013-02-01 14:36:00,
2013-02-01 09:41:00,29.4,16.0,29.58,N/A,-32768,0.0,0.0,57,0.00,,,0.00,0,Wunderground v.1.15,2013-02-01 14:41:00,
2013-02-01 09:46:00,29.8,16.4,29.57,N/A,-32768,0.0,0.0,57,0.00,,,0.00,0,Wunderground v.1.15,2013-02-01 14:46:00,
2013-02-01 09:51:00,29.9,16.1,29.57,N/A,-32768,0.0,0.0,56,0.00,,,0.00,0,Wunderground v.1.15,2013-02-01 14:51:00,
2013-02-01 09:56:00,30.0,15.3,29.57,N/A,-32768,0.0,0.0,54,0.00,,,0.00,0,Wunderground v.1.15,2013-02-01 14:56:00,
2013-02-01 10:01:00,30.2,15.1,29.57,N/A,-32768,0.0,0.0,53,0.00,,,0.00,0,Wunderground v.1.15,2013-02-01 15:01:00,
2013-02-01 10:06:00,30.7,15.1,29.58,N/A,-32768,0.0,0.0,52,0.00,,,0.00,0,Wunderground v.1.15,2013-02-01 15:06:00,
2013-02-01 10:11:00,30.2,15.5,29.58,N/A,-32768,0.0,0.0,54,0.00,,,0.00,0,Wunderground v.1.15,2013-02-01 15:11:00,
2013-02-01 10:16:00,29.6,15.8,29.58,N/A,-32768,0.0,0.0,56,0.00,,,0.00,0,Wunderground v.1.15,2013-02-01 15:16:00,
2013-02-01 10:21:00,29.0,16.1,29.58,N/A,-32768,0.0,0.0,58,0.00,,,0.00,0,Wunderground v.1.15,2013-02-01 15:21:00,
2013-02-01 10:26:00,28.5,16.0,29.57,N/A,-32768,0.0,0.0,59,0.00,,,0.00,0,Wunderground v.1.15,2013-02-01 15:26:00,
2013-02-01 10:31:00,28.2,16.1,29.58,N/A,-32768,0.0,0.0,60,0.00,,,0.00,0,Wunderground v.1.15,2013-02-01 15:31:00,
2013-02-01 10:36:00,28.2,15.7,29.58,N/A,-32768,0.0,0.0,59,0.00,,,0.00,0,Wunderground v.1.15,2013-02-01 15:36:00,
2013-02-01 10:42:00,28.1,15.6,29.58,N/A,-32768,0.0,0.0,59,0.00,,,0.00,0,Wunderground v.1.15,2013-02-01 15:42:00,
2013-02-01 10:47:00,28.3,15.8,29.58,N/A,-32768,0.0,0.0,59,0.00,,,0.00,0,Wunderground v.1.15,2013-02-01 15:47:00,
2013-02-01 10:52:00,28.0,15.9,29.58,N/A,-32768,0.0,0.0,60,0.00,,,0.00,0,Wunderground v.1.15,2013-02-01 15:52:00,
2013-02-01 10:57:00,27.3,15.6,29.58,N/A,-32768,0.0,0.0,61,0.00,,,0.00,0,Wunderground v.1.15,2013-02-01 15:57:00,
2013-02-01 11:02:00,27.0,15.7,29.58,N/A,-32768,0.0,0.0,62,0.00,,,0.00,0,Wunderground v.1.15,2013-02-01 16:02:00,
2013-02-01 11:07:00,27.3,15.6,29.59,N/A,-32768,0.0,0.0,61,0.00,,,0.00,0,Wunderground v.1.15,2013-02-01 16:07:00,
2013-02-01 11:12:00,27.6,15.9,29.58,N/A,-32768,0.0,0.0,61,0.00,,,0.00,0,Wunderground v.1.15,2013-02-01 16:12:00,
2013-02-01 11:17:00,28.1,16.0,29.58,N/A,-32768,0.0,0.0,60,0.00,,,0.00,0,Wunderground v.1.15,2013-02-01 16:17:00,
2013-02-01 11:22:00,28.6,14.9,29.58,N/A,-32768,0.0,0.0,56,0.00,,,0.00,0,Wunderground v.1.15,2013-02-01 16:22:00,
2013-02-01 11:27:00,29.1,14.5,29.59,N/A,-32768,0.0,0.0,54,0.00,,,0.00,0,Wunderground v.1.15,2013-02-01 16:27:00,
2013-02-01 11:32:00,29.1,12.8,29.58,N/A,-32768,0.0,0.0,50,0.00,,,0.00,0,Wunderground v.1.15,2013-02-01 16:32:00,
2013-02-01 11:37:00,29.3,12.0,29.58,N/A,-32768,0.0,0.0,48,0.00,,,0.00,0,Wunderground v.1.15,2013-02-01 16:37:00,
2013-02-01 11:42:00,29.3,10.6,29.59,N/A,-32768,0.0,0.0,45,0.00,,,0.00,0,Wunderground v.1.15,2013-02-01 16:42:00,
2013-02-01 11:47:00,29.6,9.3,29.58,N/A,-32768,0.0,0.0,42,0.00,,,0.00,0,Wunderground v.1.15,2013-02-01 16:47:00,
2013-02-01 11:52:00,29.9,9.0,29.59,N/A,-32768,0.0,0.0,41,0.00,,,0.00,0,Wunderground v.1.15,2013-02-01 16:52:00,
2013-02-01 11:57:00,30.3,7.7,29.59,N/A,-32768,0.0,0.0,38,0.00,,,0.00,0,Wunderground v.1.15,2013-02-01 16:57:00,
2013-02-01 12:02:00,30.3,6.5,29.59,N/A,-32768,0.0,0.0,36,0.00,,,0.00,0,Wunderground v.1.15,2013-02-01 17:02:00,
2013-02-01 12:07:00,30.5,6.1,29.59,N/A,-32768,0.0,0.0,35,0.00,,,0.00,0,Wunderground v.1.15,2013-02-01 17:07:00,
2013-02-01 12:12:00,31.1,6.0,29.59,N/A,-32768,0.0,0.0,34,0.00,,,0.00,0,Wunderground v.1.15,2013-02-01 17:12:00,
2013-02-01 12:17:00,31.2,5.4,29.59,N/A,-32768,0.0,0.0,33,0.00,,,0.00,0,Wunderground v.1.15,2013-02-01 17:17:00,
2013-02-01 12:22:00,30.9,4.4,29.59,N/A,-32768,0.0,0.0,32,0.00,,,0.00,0,Wunderground v.1.15,2013-02-01 17:22:00,
2013-02-01 12:27:00,31.3,4.8,29.59,N/A,-32768,0.0,0.0,32,0.00,,,0.00,0,Wunderground v.1.15,2013-02-01 17:27:00,
2013-02-01 12:32:00,31.4,4.9,29.59,N/A,-32768,0.0,0.0,32,0.00,,,0.00,0,Wunderground v.1.15,2013-02-01 17:32:00,
2013-02-01 12:37:00,32.1,4.8,29.59,N/A,-32768,0.0,0.0,31,0.00,,,0.00,0,Wunderground v.1.15,2013-02-01 17:37:00,
2013-02-01 12:42:00,32.2,3.4,29.60,N/A,-32768,0.0,0.0,29,0.00,,,0.00,0,Wunderground v.1.15,2013-02-01 17:42:00,
2013-02-01 12:47:00,32.4,3.6,29.60,N/A,-32768,0.0,0.0,29,0.00,,,0.00,0,Wunderground v.1.15,2013-02-01 17:47:00,
2013-02-01 12:52:00,32.3,3.5,29.60,N/A,-32768,0.0,0.0,29,0.00,,,0.00,0,Wunderground v.1.15,2013-02-01 17:52:00,
2013-02-01 12:57:00,31.4,3.5,29.61,N/A,-32768,0.0,0.0,30,0.00,,,0.00,0,Wunderground v.1.15,2013-02-01 17:57:00,
2013-02-01 13:02:00,31.8,3.8,29.61,N/A,-32768,0.0,0.0,30,0.00,,,0.00,0,Wunderground v.1.15,2013-02-01 18:02:00,
2013-02-01 13:07:00,31.7,4.5,29.61,N/A,-32768,0.0,0.0,31,0.00,,,0.00,0,Wunderground v.1.15,2013-02-01 18:07:00,
2013-02-01 13:12:00,31.2,4.7,29.62,N/A,-32768,0.0,0.0,32,0.00,,,0.00,0,Wunderground v.1.15,2013-02-01 18:12:00,
2013-02-01 13:17:00,30.5,4.1,29.62,N/A,-32768,0.0,0.0,32,0.00,,,0.00,0,Wunderground v.1.15,2013-02-01 18:17:00,
2013-02-01 13:22:00,30.0,3.7,29.62,N/A,-32768,0.0,0.0,32,0.00,,,0.00,0,Wunderground v.1.15,2013-02-01 18:22:00,
2013-02-01 13:27:00,30.2,4.5,29.62,N/A,-32768,0.0,0.0,33,0.00,,,0.00,0,Wunderground v.1.15,2013-02-01 18:27:00,
2013-02-01 13:32:00,31.3,4.1,29.62,N/A,-32768,0.0,0.0,31,0.00,,,0.00,0,Wunderground v.1.15,2013-02-01 18:32:00,
2013-02-01 13:37:00,31.5,4.3,29.63,N/A,-32768,0.0,0.0,31,0.00,,,0.00,0,Wunderground v.1.15,2013-02-01 18:37:00,
2013-02-01 13:42:00,31.1,3.9,29.63,N/A,-32768,0.0,0.0,31,0.00,,,0.00,0,Wunderground v.1.15,2013-02-01 18:42:00,
2013-02-01 13:47:00,31.0,3.8,29.63,N/A,-32768,0.0,0.0,31,0.00,,,0.00,0,Wunderground v.1.15,2013-02-01 18:47:00,
2013-02-01 13:53:00,30.9,3.8,29.63,N/A,-32768,0.0,0.0,31,0.00,,,0.00,0,Wunderground v.1.15,2013-02-01 18:53:00,
2013-02-01 13:58:00,30.8,3.7,29.63,N/A,-32768,0.0,0.0,31,0.00,,,0.00,0,Wunderground v.1.15,2013-02-01 18:58:00,
2013-02-01 14:03:00,30.7,3.6,29.64,N/A,-32768,0.0,0.0,31,0.00,,,0.00,0,Wunderground v.1.15,2013-02-01 19:03:00,
2013-02-01 14:08:00,31.0,3.8,29.63,N/A,-32768,0.0,0.0,31,0.00,,,0.00,0,Wunderground v.1.15,2013-02-01 19:08:00,
2013-02-01 14:14:00,31.4,3.5,29.64,N/A,-32768,0.0,0.0,30,0.00,,,0.00,0,Wunderground v.1.15,2013-02-01 19:14:00,
2013-02-01 14:19:00,31.4,3.5,29.64,N/A,-32768,0.0,0.0,30,0.00,,,0.00,0,Wunderground v.1.15,2013-02-01 19:19:00,
2013-02-01 14:24:00,31.3,4.1,29.64,N/A,-32768,0.0,0.0,31,0.00,,,0.00,0,Wunderground v.1.15,2013-02-01 19:24:00,
2013-02-01 14:29:00,31.6,4.4,29.65,N/A,-32768,0.0,0.0,31,0.00,,,0.00,0,Wunderground v.1.15,2013-02-01 19:29:00,
2013-02-01 14:34:00,31.4,4.2,29.65,N/A,-32768,0.0,0.0,31,0.00,,,0.00,0,Wunderground v.1.15,2013-02-01 19:34:00,
2013-02-01 14:39:00,31.3,2.7,29.66,N/A,-32768,0.0,0.0,29,0.00,,,0.00,0,Wunderground v.1.15,2013-02-01 19:39:00,
2013-02-01 14:44:00,30.5,3.4,29.66,N/A,-32768,0.0,0.0,31,0.00,,,0.00,0,Wunderground v.1.15,2013-02-01 19:44:00,
2013-02-01 14:49:00,30.5,3.4,29.66,N/A,-32768,0.0,0.0,31,0.00,,,0.00,0,Wunderground v.1.15,2013-02-01 19:49:00,
2013-02-01 14:54:00,31.2,4.0,29.66,N/A,-32768,0.0,0.0,31,0.00,,,0.00,0,Wunderground v.1.15,2013-02-01 19:54:00,
2013-02-01 14:59:00,31.6,4.4,29.67,N/A,-32768,0.0,0.0,31,0.00,,,0.00,0,Wunderground v.1.15,2013-02-01 19:59:00,
2013-02-01 15:04:00,30.9,4.4,29.67,N/A,-32768,0.0,0.0,32,0.00,,,0.00,0,Wunderground v.1.15,2013-02-01 20:04:00,
2013-02-01 15:09:00,30.6,4.2,29.67,N/A,-32768,0.0,0.0,32,0.00,,,0.00,0,Wunderground v.1.15,2013-02-01 20:09:00,
2013-02-01 15:14:00,30.8,4.4,29.68,N/A,-32768,0.0,0.0,32,0.00,,,0.00,0,Wunderground v.1.15,2013-02-01 20:14:00,
2013-02-01 15:19:00,31.5,4.3,29.68,N/A,-32768,0.0,0.0,31,0.00,,,0.00,0,Wunderground v.1.15,2013-02-01 20:19:00,
2013-02-01 15:24:00,31.4,4.2,29.68,N/A,-32768,0.0,0.0,31,0.00,,,0.00,0,Wunderground v.1.15,2013-02-01 20:24:00,
2013-02-01 15:29:00,30.6,3.5,29.69,N/A,-32768,0.0,0.0,31,0.00,,,0.00,0,Wunderground v.1.15,2013-02-01 20:29:00,
2013-02-01 15:34:00,30.2,3.8,29.69,N/A,-32768,0.0,0.0,32,0.00,,,0.00,0,Wunderground v.1.15,2013-02-01 20:34:00,
2013-02-01 15:40:00,30.6,4.2,29.69,N/A,-32768,0.0,0.0,32,0.00,,,0.00,0,Wunderground v.1.15,2013-02-01 20:40:00,
2013-02-01 15:45:00,30.9,3.8,29.70,N/A,-32768,0.0,0.0,31,0.00,,,0.00,0,Wunderground v.1.15,2013-02-01 20:45:00,
2013-02-01 15:49:00,30.9,3.0,29.70,N/A,-32768,0.0,0.0,30,0.00,,,0.00,0,Wunderground v.1.15,2013-02-01 20:49:00,
2013-02-01 15:55:00,31.2,2.6,29.70,N/A,-32768,0.0,0.0,29,0.00,,,0.00,0,Wunderground v.1.15,2013-02-01 20:55:00,
2013-02-01 16:00:00,30.9,1.6,29.71,N/A,-32768,0.0,0.0,28,0.00,,,0.00,0,Wunderground v.1.15,2013-02-01 21:00:00,
2013-02-01 16:05:00,31.2,2.6,29.71,N/A,-32768,0.0,0.0,29,0.00,,,0.00,0,Wunderground v.1.15,2013-02-01 21:05:00,
2013-02-01 16:10:00,30.9,1.6,29.71,N/A,-32768,0.0,0.0,28,0.00,,,0.00,0,Wunderground v.1.15,2013-02-01 21:10:00,
2013-02-01 16:15:00,30.3,1.8,29.72,N/A,-32768,0.0,0.0,29,0.00,,,0.00,0,Wunderground v.1.15,2013-02-01 21:15:00,
2013-02-01 16:20:00,30.2,1.7,29.73,N/A,-32768,0.0,0.0,29,0.00,,,0.00,0,Wunderground v.1.15,2013-02-01 21:20:00,
2013-02-01 16:25:00,29.8,1.4,29.73,N/A,-32768,0.0,0.0,29,0.00,,,0.00,0,Wunderground v.1.15,2013-02-01 21:25:00,
2013-02-01 16:30:00,29.6,1.2,29.73,N/A,-32768,0.0,0.0,29,0.00,,,0.00,0,Wunderground v.1.15,2013-02-01 21:30:00,
2013-02-01 16:35:00,29.6,1.2,29.73,N/A,-32768,0.0,0.0,29,0.00,,,0.00,0,Wunderground v.1.15,2013-02-01 21:35:00,
2013-02-01 16:40:00,29.7,1.3,29.74,N/A,-32768,0.0,0.0,29,0.00,,,0.00,0,Wunderground v.1.15,2013-02-01 21:40:00,
2013-02-01 16:45:00,29.6,1.9,29.74,N/A,-32768,0.0,0.0,30,0.00,,,0.00,0,Wunderground v.1.15,2013-02-01 21:45:00,
2013-02-01 16:50:00,29.4,2.4,29.74,N/A,-32768,0.0,0.0,31,0.00,,,0.00,0,Wunderground v.1.15,2013-02-01 21:50:00,
2013-02-01 16:55:00,29.3,2.4,29.75,N/A,-32768,0.0,0.0,31,0.00,,,0.00,0,Wunderground v.1.15,2013-02-01 21:55:00,
2013-02-01 17:00:00,29.0,1.4,29.75,N/A,-32768,0.0,0.0,30,0.00,,,0.00,0,Wunderground v.1.15,2013-02-01 22:00:00,
2013-02-01 17:05:00,29.0,1.4,29.75,N/A,-32768,0.0,0.0,30,0.00,,,0.00,0,Wunderground v.1.15,2013-02-01 22:05:00,
2013-02-01 17:10:00,29.0,1.4,29.76,N/A,-32768,0.0,0.0,30,0.00,,,0.00,0,Wunderground v.1.15,2013-02-01 22:10:00,
2013-02-01 17:15:00,28.8,1.2,29.76,N/A,-32768,0.0,0.0,30,0.00,,,0.00,0,Wunderground v.1.15,2013-02-01 22:15:00,
2013-02-01 17:20:00,28.9,1.3,29.77,N/A,-32768,0.0,0.0,30,0.00,,,0.00,0,Wunderground v.1.15,2013-02-01 22:20:00,
2013-02-01 17:25:00,28.7,1.1,29.76,N/A,-32768,0.0,0.0,30,0.00,,,0.00,0,Wunderground v.1.15,2013-02-01 22:25:00,
2013-02-01 17:30:00,28.5,1.6,29.77,N/A,-32768,0.0,0.0,31,0.00,,,0.00,0,Wunderground v.1.15,2013-02-01 22:30:00,
2013-02-01 17:35:00,28.4,1.6,29.78,N/A,-32768,0.0,0.0,31,0.00,,,0.00,0,Wunderground v.1.15,2013-02-01 22:35:00,
2013-02-01 17:40:00,28.3,1.5,29.78,N/A,-32768,0.0,0.0,31,0.00,,,0.00,0,Wunderground v.1.15,2013-02-01 22:40:00,
2013-02-01 17:45:00,28.2,0.7,29.78,N/A,-32768,0.0,0.0,30,0.00,,,0.00,0,Wunderground v.1.15,2013-02-01 22:45:00,
2013-02-01 17:50:00,28.2,1.4,29.78,N/A,-32768,0.0,0.0,31,0.00,,,0.00,0,Wunderground v.1.15,2013-02-01 22:50:00,
2013-02-01 17:55:00,28.3,1.5,29.79,N/A,-32768,0.0,0.0,31,0.00,,,0.00,0,Wunderground v.1.15,2013-02-01 22:55:00,
2013-02-01 18:00:00,28.2,2.1,29.80,N/A,-32768,0.0,0.0,32,0.00,,,0.00,0,Wunderground v.1.15,2013-02-01 23:00:00,
2013-02-01 18:05:00,28.0,1.9,29.80,N/A,-32768,0.0,0.0,32,0.00,,,0.00,0,Wunderground v.1.15,2013-02-01 23:05:00,
2013-02-01 18:10:00,27.9,2.5,29.81,N/A,-32768,0.0,0.0,33,0.00,,,0.00,0,Wunderground v.1.15,2013-02-01 23:10:00,
2013-02-01 18:15:00,27.9,2.5,29.81,N/A,-32768,0.0,0.0,33,0.00,,,0.00,0,Wunderground v.1.15,2013-02-01 23:15:00,
2013-02-01 18:20:00,27.8,2.4,29.81,N/A,-32768,0.0,0.0,33,0.00,,,0.00,0,Wunderground v.1.15,2013-02-01 23:20:00,
2013-02-01 18:25:00,27.8,2.4,29.81,N/A,-32768,0.0,0.0,33,0.00,,,0.00,0,Wunderground v.1.15,2013-02-01 23:25:00,
2013-02-01 18:30:00,27.7,2.9,29.82,N/A,-32768,0.0,0.0,34,0.00,,,0.00,0,Wunderground v.1.15,2013-02-01 23:30:00,
2013-02-01 18:35:00,27.7,2.3,29.82,N/A,-32768,0.0,0.0,33,0.00,,,0.00,0,Wunderground v.1.15,2013-02-01 23:35:00,
2013-02-01 18:40:00,27.6,2.2,29.82,N/A,-32768,0.0,0.0,33,0.00,,,0.00,0,Wunderground v.1.15,2013-02-01 23:40:00,
2013-02-01 18:45:00,27.4,2.0,29.83,N/A,-32768,0.0,0.0,33,0.00,,,0.00,0,Wunderground v.1.15,2013-02-01 23:45:00,
2013-02-01 18:50:00,27.3,2.6,29.83,N/A,-32768,0.0,0.0,34,0.00,,,0.00,0,Wunderground v.1.15,2013-02-01 23:50:00,
2013-02-01 18:55:00,27.4,2.0,29.83,N/A,-32768,0.0,0.0,33,0.00,,,0.00,0,Wunderground v.1.15,2013-02-01 23:55:00,
2013-02-01 19:00:00,27.3,1.9,29.84,N/A,-32768,0.0,0.0,33,0.00,,,0.00,0,Wunderground v.1.15,2013-02-02 00:00:00,
2013-02-01 19:05:00,27.0,2.3,29.84,N/A,-32768,0.0,0.0,34,0.00,,,0.00,0,Wunderground v.1.15,2013-02-02 00:05:00,
2013-02-01 19:10:00,26.9,2.2,29.85,N/A,-32768,0.0,0.0,34,0.00,,,0.00,0,Wunderground v.1.15,2013-02-02 00:10:00,
2013-02-01 19:15:00,26.8,2.8,29.85,N/A,-32768,0.0,0.0,35,0.00,,,0.00,0,Wunderground v.1.15,2013-02-02 00:15:00,
2013-02-01 19:20:00,26.9,2.8,29.85,N/A,-32768,0.0,0.0,35,0.00,,,0.00,0,Wunderground v.1.15,2013-02-02 00:20:00,
2013-02-01 19:25:00,26.6,2.6,29.85,N/A,-32768,0.0,0.0,35,0.00,,,0.00,0,Wunderground v.1.15,2013-02-02 00:25:00,
2013-02-01 19:30:00,26.6,2.6,29.86,N/A,-32768,0.0,0.0,35,0.00,,,0.00,0,Wunderground v.1.15,2013-02-02 00:30:00,
2013-02-01 19:35:00,26.5,3.1,29.86,N/A,-32768,0.0,0.0,36,0.00,,,0.00,0,Wunderground v.1.15,2013-02-02 00:35:00,
2013-02-01 19:40:00,26.4,3.0,29.86,N/A,-32768,0.0,0.0,36,0.00,,,0.00,0,Wunderground v.1.15,2013-02-02 00:40:00,
2013-02-01 19:45:00,26.5,3.1,29.86,N/A,-32768,0.0,0.0,36,0.00,,,0.00,0,Wunderground v.1.15,2013-02-02 00:45:00,
2013-02-01 19:51:00,26.3,2.3,29.87,N/A,-32768,0.0,0.0,35,0.00,,,0.00,0,Wunderground v.1.15,2013-02-02 00:51:00,
2013-02-01 19:56:00,26.2,2.2,29.87,N/A,-32768,0.0,0.0,35,0.00,,,0.00,0,Wunderground v.1.15,2013-02-02 00:56:00,
2013-02-01 20:01:00,26.1,2.1,29.87,N/A,-32768,0.0,0.0,35,0.00,,,0.00,0,Wunderground v.1.15,2013-02-02 01:01:00,
2013-02-01 20:06:00,26.1,2.1,29.87,N/A,-32768,0.0,0.0,35,0.00,,,0.00,0,Wunderground v.1.15,2013-02-02 01:06:00,
2013-02-01 20:11:00,26.1,2.1,29.88,N/A,-32768,0.0,0.0,35,0.00,,,0.00,0,Wunderground v.1.15,2013-02-02 01:11:00,
2013-02-01 20:16:00,25.8,2.5,29.88,N/A,-32768,0.0,0.0,36,0.00,,,0.00,0,Wunderground v.1.15,2013-02-02 01:16:00,
2013-02-01 20:21:00,25.5,2.8,29.88,N/A,-32768,0.0,0.0,37,0.00,,,0.00,0,Wunderground v.1.15,2013-02-02 01:21:00,
2013-02-01 20:26:00,25.7,3.0,29.88,N/A,-32768,0.0,0.0,37,0.00,,,0.00,0,Wunderground v.1.15,2013-02-02 01:26:00,
2013-02-01 20:31:00,25.6,2.9,29.89,N/A,-32768,0.0,0.0,37,0.00,,,0.00,0,Wunderground v.1.15,2013-02-02 01:31:00,
2013-02-01 20:36:00,25.4,3.3,29.89,N/A,-32768,0.0,0.0,38,0.00,,,0.00,0,Wunderground v.1.15,2013-02-02 01:36:00,
2013-02-01 20:41:00,25.1,3.0,29.89,N/A,-32768,0.0,0.0,38,0.00,,,0.00,0,Wunderground v.1.15,2013-02-02 01:41:00,
2013-02-01 20:46:00,25.3,3.2,29.90,N/A,-32768,0.0,0.0,38,0.00,,,0.00,0,Wunderground v.1.15,2013-02-02 01:46:00,
2013-02-01 20:51:00,25.1,3.0,29.90,N/A,-32768,0.0,0.0,38,0.00,,,0.00,0,Wunderground v.1.15,2013-02-02 01:51:00,
2013-02-01 20:56:00,25.0,2.9,29.90,N/A,-32768,0.0,0.0,38,0.00,,,0.00,0,Wunderground v.1.15,2013-02-02 01:56:00,
2013-02-01 21:01:00,25.1,3.0,29.90,N/A,-32768,0.0,0.0,38,0.00,,,0.00,0,Wunderground v.1.15,2013-02-02 02:01:00,
2013-02-01 21:06:00,25.2,3.1,29.90,N/A,-32768,0.0,0.0,38,0.00,,,0.00,0,Wunderground v.1.15,2013-02-02 02:06:00,
2013-02-01 21:11:00,25.1,3.0,29.91,N/A,-32768,0.0,0.0,38,0.00,,,0.00,0,Wunderground v.1.15,2013-02-02 02:11:00,
2013-02-01 21:16:00,24.9,2.3,29.91,N/A,-32768,0.0,0.0,37,0.00,,,0.00,0,Wunderground v.1.15,2013-02-02 02:16:00,
2013-02-01 21:21:00,24.9,2.3,29.91,N/A,-32768,0.0,0.0,37,0.00,,,0.00,0,Wunderground v.1.15,2013-02-02 02:21:00,
2013-02-01 21:26:00,24.9,2.3,29.91,N/A,-32768,0.0,0.0,37,0.00,,,0.00,0,Wunderground v.1.15,2013-02-02 02:26:00,
2013-02-01 21:31:00,24.9,1.7,29.91,N/A,-32768,0.0,0.0,36,0.00,,,0.00,0,Wunderground v.1.15,2013-02-02 02:31:00,
2013-02-01 21:36:00,25.0,1.8,29.92,N/A,-32768,0.0,0.0,36,0.00,,,0.00,0,Wunderground v.1.15,2013-02-02 02:36:00,
2013-02-01 21:41:00,24.8,1.6,29.92,N/A,-32768,0.0,0.0,36,0.00,,,0.00,0,Wunderground v.1.15,2013-02-02 02:41:00,
2013-02-01 21:46:00,24.6,2.0,29.92,N/A,-32768,0.0,0.0,37,0.00,,,0.00,0,Wunderground v.1.15,2013-02-02 02:46:00,
2013-02-01 21:51:00,24.5,1.9,29.92,N/A,-32768,0.0,0.0,37,0.00,,,0.00,0,Wunderground v.1.15,2013-02-02 02:51:00,
2013-02-01 21:56:00,24.5,1.9,29.92,N/A,-32768,0.0,0.0,37,0.00,,,0.00,0,Wunderground v.1.15,2013-02-02 02:56:00,
2013-02-01 22:01:00,24.2,1.6,29.92,N/A,-32768,0.0,0.0,37,0.00,,,0.00,0,Wunderground v.1.15,2013-02-02 03:01:00,
2013-02-01 22:06:00,24.4,1.8,29.92,N/A,-32768,0.0,0.0,37,0.00,,,0.00,0,Wunderground v.1.15,2013-02-02 03:06:00,
2013-02-01 22:11:00,24.1,1.5,29.93,N/A,-32768,0.0,0.0,37,0.00,,,0.00,0,Wunderground v.1.15,2013-02-02 03:11:00,
2013-02-01 22:16:00,24.2,2.2,29.93,N/A,-32768,0.0,0.0,38,0.00,,,0.00,0,Wunderground v.1.15,2013-02-02 03:16:00,
2013-02-01 22:21:00,23.9,1.9,29.93,N/A,-32768,0.0,0.0,38,0.00,,,0.00,0,Wunderground v.1.15,2013-02-02 03:21:00,
2013-02-01 22:26:00,24.0,1.5,29.93,N/A,-32768,0.0,0.0,37,0.00,,,0.00,0,Wunderground v.1.15,2013-02-02 03:26:00,
2013-02-01 22:31:00,23.8,1.8,29.93,N/A,-32768,0.0,0.0,38,0.00,,,0.00,0,Wunderground v.1.15,2013-02-02 03:31:00,
2013-02-01 22:36:00,23.9,1.9,29.94,N/A,-32768,0.0,0.0,38,0.00,,,0.00,0,Wunderground v.1.15,2013-02-02 03:36:00,
2013-02-01 22:41:00,23.7,1.8,29.94,N/A,-32768,0.0,0.0,38,0.00,,,0.00,0,Wunderground v.1.15,2013-02-02 03:41:00,
2013-02-01 22:46:00,23.5,2.1,29.94,N/A,-32768,0.0,0.0,39,0.00,,,0.00,0,Wunderground v.1.15,2013-02-02 03:46:00,
2013-02-01 22:51:00,23.4,2.0,29.95,N/A,-32768,0.0,0.0,39,0.00,,,0.00,0,Wunderground v.1.15,2013-02-02 03:51:00,
2013-02-01 22:56:00,23.5,1.6,29.95,N/A,-32768,0.0,0.0,38,0.00,,,0.00,0,Wunderground v.1.15,2013-02-02 03:56:00,
2013-02-01 23:01:00,23.5,2.1,29.95,N/A,-32768,0.0,0.0,39,0.00,,,0.00,0,Wunderground v.1.15,2013-02-02 04:01:00,
2013-02-01 23:06:00,23.4,1.5,29.95,N/A,-32768,0.0,0.0,38,0.00,,,0.00,0,Wunderground v.1.15,2013-02-02 04:06:00,
2013-02-01 23:12:00,23.4,2.0,29.95,N/A,-32768,0.0,0.0,39,0.00,,,0.00,0,Wunderground v.1.15,2013-02-02 04:12:00,
2013-02-01 23:17:00,23.4,2.0,29.95,N/A,-32768,0.0,0.0,39,0.00,,,0.00,0,Wunderground v.1.15,2013-02-02 04:17:00,
2013-02-01 23:22:00,23.2,1.9,29.95,N/A,-32768,0.0,0.0,39,0.00,,,0.00,0,Wunderground v.1.15,2013-02-02 04:22:00,
2013-02-01 23:27:00,23.3,2.5,29.95,N/A,-32768,0.0,0.0,40,0.00,,,0.00,0,Wunderground v.1.15,2013-02-02 04:27:00,
2013-02-01 23:32:00,23.1,1.8,29.95,N/A,-32768,0.0,0.0,39,0.00,,,0.00,0,Wunderground v.1.15,2013-02-02 04:32:00,
2013-02-01 23:37:00,22.9,2.1,29.95,N/A,-32768,0.0,0.0,40,0.00,,,0.00,0,Wunderground v.1.15,2013-02-02 04:37:00,
2013-02-01 23:42:00,23.0,2.2,29.96,N/A,-32768,0.0,0.0,40,0.00,,,0.00,0,Wunderground v.1.15,2013-02-02 04:42:00,
2013-02-01 23:47:00,22.9,2.1,29.96,N/A,-32768,0.0,0.0,40,0.00,,,0.00,0,Wunderground v.1.15,2013-02-02 04:47:00,
2013-02-01 23:52:00,22.9,2.1,29.96,N/A,-32768,0.0,0.0,40,0.00,,,0.00,0,Wunderground v.1.15,2013-02-02 04:52:00,
2013-02-01 23:57:00,22.5,1.8,29.96,N/A,-32768,0.0,0.0,40,0.00,,,0.00,0,Wunderground v.1.15,2013-02-02 04:57:00,